"TOA5","AWS1","CR1000","7964","CR1000.Std.14","CPU:AWS1_114.CR1","64363","TBL110"
"TIMESTAMP","RECORD","Wind_spd_WVc(1)","Wind_spd_WVc(2)","Air_Temp_Avg","Humidity_Avg","SW_upper_Wm2_Avg","Rain_Tot","Press_Avg","Issui_Tot","Depth_cm","SR50A_Raw","Quality","Ground_Temp_Avg(1)","Ground_Temp_Avg(2)","SW_lower_Wm2_Avg","Albedo_Avg","SWC_per(1)","SWC_per(2)","Period(1)","Period(2)"
"TS","RN","","","","","","","","","","","","","","","","","","",""
"","","WVc","WVc","Avg","Avg","Avg","Tot","Avg","Tot","Smp","Smp","Smp","Avg","Avg","Avg","Avg","Smp","Smp","Smp","Smp"
"2018-04-18 00:00:00",336733,0.73,188.7,5.788,100,0,0,866.4095,0,-3.692,3.183,181,5.999,5.141,0.4094103,0,52.66,60.03,33.95,35.69
"2018-04-18 00:10:00",336734,0.431,217.4,5.857,100,0,0,866.4771,0,-3.667,3.183,194,5.991,5.141,0.3449661,0,52.72,60.09,33.96,35.7
"2018-04-18 00:20:00",336735,0.132,154.2,5.797,100,0,0,866.0598,0,-3.568,3.183,192,5.946,5.14,0.0416992,0,52.72,60.09,33.96,35.7
"2018-04-18 00:30:00",336736,0.221,242.4,5.664,100,0,0,866.1061,0,-3.544,3.183,192,5.926,5.138,0,0,52.83,60.15,33.99,35.71
"2018-04-18 00:40:00",336737,0.096,7.489,5.66,100,0,0,866.1027,0,-3.593,3.183,192,5.94,5.14,0.3260119,0,52.77,60.15,33.98,35.71
"2018-04-18 00:50:00",336738,0,0,5.65,100,0,0,865.9147,0.5,-3.847,3.186,177,5.903,5.136,0.07202589,0,52.88,60.15,34,35.71
"2018-04-18 01:00:00",336739,0,0,5.664,100,0,0.5,865.8906,0,-3.896,3.186,176,5.87,5.135,0.03411753,0,52.88,60.15,34,35.71
"2018-04-18 01:10:00",336740,0.098,24.19,5.651,100,0,0,865.7686,0,-3.997,3.187,190,5.88,5.134,0.03032669,0,52.88,60.15,34,35.71
"2018-04-18 01:20:00",336741,0,0,5.691,100,0,0,865.6926,0,-4.199,3.189,172,5.899,5.134,0,0,52.94,60.21,34.02,35.73
"2018-04-18 01:30:00",336742,0,0,5.684,100,0,0.5,865.4706,0.5,-3.997,3.187,194,5.911,5.127,0,0,53,60.21,34.03,35.73
"2018-04-18 01:40:00",336743,0,0,5.655,100,0,0,865.4482,0,-4.049,3.188,190,5.929,5.124,0,0,53,60.27,34.03,35.74
"2018-04-18 01:50:00",336744,0,0,5.64,100,0,0,865.2452,0,-3.972,3.187,190,5.948,5.123,0,0,53.05,60.27,34.04,35.74
"2018-04-18 02:00:00",336745,0,0,5.571,100,0,0,865.1408,0,-3.922,3.187,194,5.951,5.105,0,0,53.05,60.33,34.04,35.75
"2018-04-18 02:10:00",336746,0.129,308.9,5.547,100,0,0.5,865.1932,0.5,-3.922,3.187,188,5.904,5.1,0.03790836,0,53.11,60.33,34.06,35.75
"2018-04-18 02:20:00",336747,0.129,314.7,5.586,100,0,0,864.9916,0,-4.124,3.189,177,5.865,5.105,0.03790836,0,53.11,60.38,34.06,35.77
"2018-04-18 02:30:00",336748,0.059,15.17,5.608,100,0,0.5,864.9758,0,-3.997,3.187,190,5.841,5.098,0,0,53.16,60.44,34.07,35.78
"2018-04-18 02:40:00",336749,0.144,350.5,5.593,100,0,0,864.7804,0.5,-4.124,3.189,177,5.815,5.12,0,0,53.16,60.38,34.07,35.77
"2018-04-18 02:50:00",336750,0.072,359.8,5.507,100,0,0,864.7218,0,-4.175,3.19,176,5.794,5.134,0,0,53.22,60.44,34.08,35.78
"2018-04-18 03:00:00",336751,0.032,275.7,5.458,100,0,0.5,864.6895,0.5,-4.301,3.191,194,5.802,5.113,0,0,53.22,60.44,34.08,35.78
"2018-04-18 03:10:00",336752,0,0,5.37,100,0,0,864.6558,0,-3.949,3.189,190,5.822,5.113,0,0,53.33,60.5,34.11,35.79
"2018-04-18 03:20:00",336753,0,0,5.294,100,0,0.5,864.513,0,-3.949,3.189,189,5.828,5.134,0,0,53.45,60.5,34.14,35.79
"2018-04-18 03:30:00",336754,0,0,5.282,100,0,0,864.4367,0.5,-3.849,3.188,177,5.855,5.122,0,0,53.5,60.56,34.15,35.81
"2018-04-18 03:40:00",336755,0.016,9.05,5.301,100,0,0.5,864.2865,0,-3.898,3.188,193,5.856,5.137,0.01895418,0,53.73,60.62,34.21,35.82
"2018-04-18 03:50:00",336756,0.019,322,5.298,100,0,0,864.1913,0.5,-3.949,3.189,192,5.793,5.12,0.3146394,0,53.78,60.68,34.22,35.83
"2018-04-18 04:00:00",336757,0,0,5.312,100,0,0.5,864.1916,0,-4.302,3.192,172,5.707,5.147,0.07202589,0,53.9,60.74,34.25,35.85
"2018-04-18 04:10:00",336758,0,0,5.227,100,0,0.5,864.209,0.5,-3.924,3.189,194,5.697,5.158,0,0,53.9,60.8,34.25,35.86
"2018-04-18 04:20:00",336759,0.101,17.52,5.047,100,0,0.5,864.21,0.5,-3.875,3.19,181,5.697,5.16,0,0,54.01,60.8,34.27,35.86
"2018-04-18 04:30:00",336760,0,0,4.987,100,0,0,864.0211,0,-3.799,3.189,172,5.706,5.165,0,0,54.07,60.86,34.29,35.88
"2018-04-18 04:40:00",336761,0.06,199.4,4.969,100,0,0,863.9625,0,-3.572,3.187,193,5.735,5.173,0,0,54.12,60.98,34.3,35.9
"2018-04-18 04:50:00",336762,0.427,253.3,5.008,100,0,0.5,863.9771,0,-3.622,3.187,190,5.737,5.168,0,0,54.18,61.04,34.32,35.92
"2018-04-18 05:00:00",336763,0.039,284.1,5.057,100,0,0,864.2021,0.5,-3.697,3.187,189,5.74,5.16,0.003790837,0,54.24,61.16,34.33,35.94
"2018-04-18 05:10:00",336764,0,0,5.12,100,0,0,864.2977,0,-3.874,3.189,178,5.742,5.174,0,0,54.24,61.22,34.33,35.96
"2018-04-18 05:20:00",336765,0,0,5.06,100,0.6329919,0.5,864.4638,0.5,-3.698,3.188,189,5.766,5.177,0,0,54.18,61.28,34.32,35.97
"2018-04-18 05:30:00",336766,0,0,4.961,100,1.246326,0,864.676,0,-3.722,3.188,190,5.781,5.184,0.07202589,0.037,54.24,61.4,34.33,36
"2018-04-18 05:40:00",336767,0.045,288.1,5.006,100,3.121712,0.5,864.714,0,-3.723,3.188,188,5.768,5.201,0.4549004,0.15,54.29,61.52,34.34,36.02
"2018-04-18 05:50:00",336768,0.154,306.8,4.992,100,8.983767,0,864.7165,0.5,-3.774,3.189,177,5.719,5.21,1.159996,0.129,54.29,61.58,34.34,36.04
"2018-04-18 06:00:00",336769,0.253,315,4.935,100,13.49727,0.5,864.7148,0,-3.798,3.189,176,5.689,5.227,1.573197,0.117,54.35,61.76,34.36,36.08
"2018-04-18 06:10:00",336770,0.063,296.9,5.025,100,9.954879,0,864.7208,0.5,-3.874,3.189,176,5.686,5.207,1.122088,0.112,54.41,61.88,34.37,36.11
"2018-04-18 06:20:00",336771,0,0,5.117,100,8.162057,0.5,864.6818,0,-3.974,3.19,195,5.68,5.213,0.9135916,0.113,54.46,62.06,34.38,36.15
"2018-04-18 06:30:00",336772,0.296,264.8,5.035,100,11.94035,0,864.6381,0.5,-3.949,3.19,190,5.646,5.215,1.182741,0.099,54.46,62.18,34.38,36.17
"2018-04-18 06:40:00",336773,0.114,345.6,4.993,100,13.48155,0.5,864.6793,0,-3.825,3.19,194,5.633,5.231,1.364701,0.102,54.52,62.3,34.4,36.2
"2018-04-18 06:50:00",336774,0.428,234,4.843,100,11.65727,0,864.828,0,-3.825,3.19,192,5.653,5.217,1.364701,0.117,54.52,62.42,34.4,36.23
"2018-04-18 07:00:00",336775,0.057,183.9,4.888,100,16.67796,0,864.9631,0,-3.825,3.19,194,5.668,5.195,1.804438,0.108,54.58,62.48,34.41,36.24
"2018-04-18 07:10:00",336776,0,0,4.938,100,22.68942,0,865.1074,0.5,-3.85,3.19,170,5.692,5.221,2.225221,0.098,54.58,62.54,34.41,36.25
"2018-04-18 07:20:00",336777,0,0,4.944,100,23.31062,0.5,865.2141,0,-3.925,3.19,192,5.695,5.228,2.40339,0.103,54.52,62.6,34.4,36.27
"2018-04-18 07:30:00",336778,0,0,5.122,100,36.9455,0.5,865.1387,0.5,-3.975,3.19,196,5.69,5.224,3.817372,0.104,54.58,62.6,34.41,36.27
"2018-04-18 07:40:00",336779,0.318,186.8,5.113,100,88.90195,0.5,864.9661,0.5,-3.546,3.186,177,5.674,5.243,8.991864,0.101,54.63,62.66,34.42,36.28
"2018-04-18 07:50:00",336780,0.306,188.5,5.12,100,60.10671,0.5,865.1791,0,-3.621,3.186,194,5.654,5.25,5.709,0.094,54.69,62.66,34.44,36.28
"2018-04-18 08:00:00",336781,0.118,317.3,5.216,100,39.50891,0,865.2099,0.5,-3.571,3.186,192,5.631,5.257,3.612667,0.091,54.75,62.72,34.45,36.3
"2018-04-18 08:10:00",336782,0.044,183.1,5.205,100,24.39574,0.5,865.2139,0.5,-3.672,3.187,194,5.618,5.258,2.100123,0.086,54.8,62.78,34.46,36.31
"2018-04-18 08:20:00",336783,0.017,163.5,5.168,100,47.16772,0.5,865.202,0,-3.42,3.185,192,5.605,5.254,4.412534,0.094,54.8,62.9,34.46,36.34
"2018-04-18 08:30:00",336784,0.486,153.3,5.074,100,79.9575,0,865.1984,0.5,-3.42,3.185,193,5.601,5.251,7.778796,0.097,54.8,62.96,34.46,36.35
"2018-04-18 08:40:00",336785,0.491,143,5.129,100,99.94981,0.5,865.1985,0.5,-3.268,3.183,182,5.591,5.263,9.988854,0.1,54.86,63.02,34.48,36.36
"2018-04-18 08:50:00",336786,0.463,206.1,5.183,100,108.4736,0.5,865.1969,0,-3.545,3.185,192,5.601,5.258,10.88728,0.1,54.92,63.14,34.49,36.39
"2018-04-18 09:00:00",336787,0.567,192.6,5.275,100,138.4483,0,865.2666,0,-3.494,3.184,192,5.61,5.26,14.09812,0.102,54.92,63.26,34.49,36.42
"2018-04-18 09:10:00",336788,0.675,155.1,5.437,100,159.9858,0,865.183,0.5,-3.544,3.184,193,5.615,5.257,16.44844,0.103,54.92,63.32,34.49,36.43
"2018-04-18 09:20:00",336789,1.219,170.2,5.376,100,167.7429,0,865.1825,0,-3.266,3.181,212,5.635,5.261,17.6653,0.105,54.92,63.45,34.49,36.46
"2018-04-18 09:30:00",336790,1.224,195.8,5.49,100,192.8266,0,865.1808,0,-3.417,3.182,194,5.644,5.26,20.62215,0.107,54.86,63.51,34.48,36.47
"2018-04-18 09:40:00",336791,1.179,202.7,5.579,98.4,155.9873,0,865.1599,0,-3.366,3.181,197,5.659,5.263,16.87301,0.108,54.86,63.45,34.48,36.46
"2018-04-18 09:50:00",336792,0.958,191.8,5.758,98,183.9412,0,865.1558,0,-3.288,3.179,196,5.653,5.263,20.2279,0.11,54.86,63.51,34.48,36.47
"2018-04-18 10:00:00",336793,1.047,177.3,6.076,98.8,258.3747,0,865.0853,0,-3.032,3.174,196,5.622,5.263,29.0416,0.112,54.86,63.51,34.48,36.47
"2018-04-18 10:10:00",336794,0.909,173.9,6.635,88.5,337.9351,0,864.9455,0,-3.456,3.175,198,5.663,5.247,38.4315,0.114,54.8,63.57,34.46,36.49
"2018-04-18 10:20:00",336795,0.665,201.4,6.859,84.4,301.7327,0,864.8984,0,-3.454,3.174,197,5.657,5.205,34.01897,0.113,54.8,63.51,34.46,36.47
"2018-04-18 10:30:00",336796,0.223,227.3,7.197,86.4,244.0086,0,864.9703,0,-3.833,3.177,194,5.701,5.179,26.8088,0.11,54.8,63.51,34.46,36.47
"2018-04-18 10:40:00",336797,0.574,163,7.131,85,299.1968,0,864.8772,0,-3.538,3.173,197,5.688,5.168,34.49522,0.114,54.75,63.51,34.45,36.47
"2018-04-18 10:50:00",336798,0.651,128.7,7.527,81.9,560.9276,0,864.6939,0,-3.585,3.17,201,5.622,5.123,67.05269,0.12,54.69,63.51,34.44,36.47
"2018-04-18 11:00:00",336799,0.689,185.4,8.36,80.2,769.6321,0,864.6307,0,-3.435,3.164,191,5.646,5.142,92.62302,0.12,54.75,63.51,34.45,36.47
"2018-04-18 11:10:00",336800,0.606,336.3,9.06,83.7,881.5868,0,864.6264,0,-3.709,3.166,205,5.686,5.106,104.8481,0.117,54.69,63.45,34.44,36.46
"2018-04-18 11:20:00",336801,0.419,315.3,9.12,92.6,492.0603,0,864.5674,0,-3.651,3.164,188,5.677,5.135,57.46892,0.115,54.69,63.45,34.44,36.46
"2018-04-18 11:30:00",336802,0.536,341.2,8.98,90.8,280.8079,0,864.3821,0,-4.21,3.172,174,5.765,5.185,33.64696,0.118,54.63,63.45,34.42,36.46
"2018-04-18 11:40:00",336803,0.335,286.9,8.89,96,313.1822,0,864.5424,0,-4.146,3.171,189,5.746,5.128,38.45684,0.122,54.63,63.45,34.42,36.46
"2018-04-18 11:50:00",336804,0.408,291,8.53,96.2,228.4817,0,864.3824,0,-3.778,3.168,188,5.774,5.042,27.15101,0.119,54.63,63.45,34.42,36.46
"2018-04-18 12:00:00",336805,0.341,271.4,8.63,95.1,174.2919,0,864.2888,0,-3.942,3.174,185,5.799,5.036,20.12212,0.115,54.58,63.39,34.41,36.44
"2018-04-18 12:10:00",336806,0.447,274.5,7.889,99.2,142.6159,0,864.4822,0,-3.839,3.173,188,5.824,5.069,16.65913,0.117,54.58,63.39,34.41,36.44
"2018-04-18 12:20:00",336807,0.366,286.3,7.8,100,213.9738,0,864.4762,0,-3.766,3.173,184,5.91,5.074,27.11973,0.126,54.58,63.32,34.41,36.43
"2018-04-18 12:30:00",336808,0.454,7.737,8.53,92.9,680.4127,0,864.3596,0,-3.628,3.163,200,5.96,5.063,94.39209,0.135,54.52,63.39,34.4,36.44
"2018-04-18 12:40:00",336809,0.53,21.95,9.4,84.5,271.6683,0,864.366,0,-3.738,3.165,190,6.026,5.04,33.18914,0.122,54.52,63.39,34.4,36.44
"2018-04-18 12:50:00",336810,0.804,25.38,8.98,83,216.6457,0,864.3188,0,-3.845,3.167,197,6.093,5.049,27.14968,0.125,54.46,63.32,34.38,36.43
"2018-04-18 13:00:00",336811,0.875,16.15,8.92,83.7,221.0723,0,864.3271,0,-3.585,3.164,194,6.093,5.069,29.38498,0.131,54.46,63.32,34.38,36.43
"2018-04-18 13:10:00",336812,0.336,294.6,8.85,86.4,155.376,0,864.3105,0,-3.746,3.168,194,6.173,5.074,19.56343,0.125,54.46,63.26,34.38,36.42
"2018-04-18 13:20:00",336813,0.3,249,8.67,87.8,191.3069,0,864.3065,0,-3.64,3.166,188,6.174,5.089,23.92096,0.125,54.41,63.26,34.37,36.42
"2018-04-18 13:30:00",336814,0.559,272.7,8.94,84.5,186.4322,0,864.3518,0,-3.591,3.164,183,6.276,5.085,24.69046,0.132,54.35,63.2,34.36,36.4
"2018-04-18 13:40:00",336815,0.638,18.9,9.03,82.5,292.2687,0,864.3585,0,-3.441,3.162,188,6.301,5.08,39.78439,0.134,54.41,63.2,34.37,36.4
"2018-04-18 13:50:00",336816,0.945,186.1,9.6,76.71,666.1123,0,864.3537,0,-4.045,3.166,195,6.353,5.106,79.74003,0.113,54.29,63.2,34.34,36.4
"2018-04-18 14:00:00",336817,0.368,59.96,9.77,75.65,204.0727,0,864.3506,0,-4.494,3.168,192,6.41,5.162,25.58608,0.123,54.18,63.2,34.32,36.4
"2018-04-18 14:10:00",336818,0.506,274.3,9.46,75.65,124.8508,0,864.3275,0,-4.2,3.169,188,6.458,5.162,14.6913,0.117,54.18,63.2,34.32,36.4
"2018-04-18 14:20:00",336819,0.548,270.1,8.97,77.72,159.4151,0,864.3254,0,-3.821,3.167,180,6.416,5.121,19.88639,0.124,54.12,63.14,34.3,36.39
"2018-04-18 14:30:00",336820,0.392,256.2,8.91,79.27,185.2739,0,864.3782,0,-3.99,3.168,190,6.516,5.117,23.92088,0.129,54.07,63.14,34.29,36.39
"2018-04-18 14:40:00",336821,0.284,274.4,9.42,77.6,323.1395,0,864.4481,0,-3.732,3.162,197,6.526,5.177,39.83552,0.126,54.07,63.08,34.29,36.38
"2018-04-18 14:50:00",336822,0.397,325.1,10.1,73.84,338.878,0,864.3482,0,-3.769,3.157,186,6.578,5.18,45.56295,0.135,54.01,63.08,34.27,36.38
"2018-04-18 15:00:00",336823,0.716,264.8,10.27,71.43,469.0335,0,864.346,0,-3.264,3.154,195,6.594,5.144,56.5259,0.124,54.01,63.02,34.27,36.36
"2018-04-18 15:10:00",336824,0.437,267.1,10.38,71.6,597.8117,0,864.2904,0,-3.351,3.153,188,6.632,5.124,64.58712,0.11,54.01,62.78,34.27,36.31
"2018-04-18 15:20:00",336825,0.481,269.7,10.67,68.84,307.136,0,864.2219,0,-4.317,3.165,172,6.584,5.132,36.71167,0.121,54.01,62.72,34.27,36.3
"2018-04-18 15:30:00",336826,0.861,288.3,9.76,70.88,244.7427,0,864.2938,0,-4.064,3.166,178,6.619,5.133,34.62537,0.141,53.95,62.66,34.26,36.28
"2018-04-18 15:40:00",336827,1.031,354.9,9.87,68.79,288.9115,0,864.2814,0,-3.72,3.161,190,6.691,5.092,31.77809,0.12,53.95,62.6,34.26,36.27
"2018-04-18 15:50:00",336828,1.22,13.07,9.52,68.45,167.0203,0,864.2899,0,-3.602,3.162,177,6.7,5.068,26.17439,0.157,53.9,62.6,34.25,36.27
"2018-04-18 16:00:00",336829,1.335,297.9,9.42,69.58,184.8,0,864.283,0,-3.787,3.165,182,6.784,5.085,28.32687,0.153,53.84,62.6,34.23,36.27
"2018-04-18 16:10:00",336830,1.354,294.6,9.15,69.18,174.5777,0,864.2969,0,-3.695,3.164,190,6.861,5.114,27.89585,0.16,53.84,62.6,34.23,36.27
"2018-04-18 16:20:00",336831,0.519,268.7,9.28,72.93,101.1095,0,864.4189,0,-3.266,3.158,183,6.836,5.174,16.20519,0.16,53.84,62.54,34.23,36.25
"2018-04-18 16:30:00",336832,1.058,294.1,9.38,70.89,148.5078,0,864.5563,0,-3.683,3.164,178,6.94,5.187,24.1024,0.163,53.84,62.48,34.23,36.24
"2018-04-18 16:40:00",336833,0.653,287.7,9.11,73.28,135.6896,0,864.5983,0,-3.588,3.163,182,6.959,5.197,21.20451,0.156,53.78,62.48,34.22,36.24
"2018-04-18 16:50:00",336834,0.333,325.8,9.19,74.27,121.0942,0,864.6194,0,-3.391,3.161,187,7.005,5.206,18.59061,0.154,53.78,62.42,34.22,36.23
"2018-04-18 17:00:00",336835,0.413,46.51,9.47,72.64,99.13953,0,864.6256,0,-3.696,3.163,170,7.11,5.213,15.64672,0.158,53.78,62.36,34.22,36.21
"2018-04-18 17:10:00",336836,0.425,121.5,9.49,73.52,150.3599,0,864.623,0,-3.486,3.159,186,7.048,5.241,24.8365,0.165,53.73,62.36,34.21,36.21
"2018-04-18 17:20:00",336837,0.337,22.14,9.72,73.49,149.6138,0,864.634,0,-3.182,3.156,182,7.071,5.27,25.18525,0.168,53.73,62.36,34.21,36.21
"2018-04-18 17:30:00",336838,0.747,340.3,9.57,74.06,89.14272,0,864.6451,0,-3.318,3.16,178,7.127,5.262,14.10088,0.157,53.67,62.3,34.19,36.2
"2018-04-18 17:40:00",336839,0.366,73.84,9.11,76.22,49.53729,0,864.639,0,-3.426,3.163,191,7.164,5.27,7.154654,0.144,53.73,62.3,34.21,36.2
"2018-04-18 17:50:00",336840,0.249,316.1,8.86,79.05,43.64973,0,864.7738,0,-3.1,3.161,192,7.201,5.327,6.806015,0.155,53.67,62.24,34.19,36.19
"2018-04-18 18:00:00",336841,0.567,338.5,8.67,81,44.0349,0,864.778,0,-3.458,3.166,184,7.207,5.347,7.76098,0.176,53.67,62.24,34.19,36.19
"2018-04-18 18:10:00",336842,0.319,264.2,8.1,85.1,11.84587,0,864.8496,0,-2.962,3.165,192,7.208,5.347,1.89856,0.153,53.61,62.24,34.18,36.19
"2018-04-18 18:20:00",336843,0.447,289.7,7.629,87.5,2.413194,0,864.816,0,-3.624,3.173,192,7.208,5.347,0.7124337,0.415,53.56,62.18,34.17,36.17
"2018-04-18 18:30:00",336844,0.18,80,7.408,89.7,0.007860567,0,864.8686,0,-3.855,3.177,185,7.208,5.349,0.2652679,0.08,53.61,62.24,34.18,36.19
"2018-04-18 18:40:00",336845,0.106,229,6.92,92.4,0,0,864.8917,0,-4.189,3.183,171,7.205,5.348,0,0,53.5,62.18,34.15,36.17
"2018-04-18 18:50:00",336846,0.002,208,6.411,96.1,0,0,864.9781,0,-4.093,3.185,171,7.163,5.349,0,0,53.56,62.18,34.17,36.17
"2018-04-18 19:00:00",336847,0,0,6.063,98.4,0,0,865.0013,0,-4.17,3.187,194,7.147,5.349,0,0,53.5,62.12,34.15,36.16
"2018-04-18 19:10:00",336848,0.036,208,5.684,100,0,0,865.1151,0,-4.098,3.19,185,7.185,5.347,0,0,53.5,62.12,34.15,36.16
"2018-04-18 19:20:00",336849,0.138,199.1,5.287,100,0,0,865.134,0,-4.175,3.192,193,7.2,5.347,0,0,53.5,62.06,34.15,36.15
"2018-04-18 19:30:00",336850,0.101,197.4,5.043,100,0,0,865.1318,0,-4.151,3.192,190,7.154,5.349,0.2273727,0,53.5,62.06,34.15,36.15
"2018-04-18 19:40:00",336851,0.117,144.2,5.251,100,0,0,865.1761,0,-4.162,3.192,195,7.167,5.397,0.5608736,0,53.45,62.06,34.14,36.15
"2018-04-18 19:50:00",336852,0.223,177.4,4.735,100,0,0,865.3278,0,-3.804,3.191,194,7.147,5.512,0,0,53.45,62,34.14,36.13
"2018-04-18 20:00:00",336853,0.104,168.7,4.809,100,0,0,865.3804,0,-4.246,3.195,190,7.173,5.585,0.4965578,0,53.45,62,34.14,36.13
"2018-04-18 20:10:00",336854,0.135,178.7,4.647,100,0,0,865.3973,0,-3.923,3.191,211,7.104,5.6,0.382862,0,53.39,61.94,34.13,36.12
"2018-04-18 20:20:00",336855,0.06,183.9,4.695,100,0,0,865.5047,0,-3.975,3.193,204,7.094,5.606,0.1895388,0,53.39,61.94,34.13,36.12
"2018-04-18 20:30:00",336856,0.063,184,4.931,100,0,0,865.631,0,-4.101,3.192,195,7.116,5.608,0.7619557,0,53.39,61.88,34.13,36.11
"2018-04-18 20:40:00",336857,0.175,183.6,4.624,100,0,0,865.6556,0,-4.053,3.196,193,7.075,5.609,0.1971233,0,53.39,61.88,34.13,36.11
"2018-04-18 20:50:00",336858,0.206,183.7,4.086,100,0,0,865.8076,0,-4.305,3.199,199,7.039,5.609,0.003790837,0,53.39,61.88,34.13,36.11
"2018-04-18 21:00:00",336859,0.402,182.3,3.945,100,0,0,865.9323,0,-4.104,3.198,192,7.042,5.607,0.1213068,0,53.33,61.88,34.11,36.11
"2018-04-18 21:10:00",336860,0.307,184.5,4.066,100,0,0,865.9639,0,-4.129,3.198,197,6.929,5.603,0.4549004,0,53.39,61.88,34.13,36.11
"2018-04-18 21:20:00",336861,0.057,185.1,4.06,100,0,0,865.9764,0,-4.331,3.201,191,6.984,5.593,0.5762071,0,53.33,61.82,34.11,36.09
"2018-04-18 21:30:00",336862,0.311,190.7,3.716,100,0,0,865.9764,0,-4.129,3.199,195,6.871,5.564,0.2805219,0,53.33,61.82,34.11,36.09
"2018-04-18 21:40:00",336863,0.239,199.7,3.931,100,0,0,865.9991,0,-4.23,3.2,202,6.86,5.553,0.8188207,0,53.33,61.76,34.11,36.08
"2018-04-18 21:50:00",336864,0.092,199.2,3.612,100,0,0,866.0906,0,-4.205,3.202,196,6.871,5.64,0.1743785,0,53.33,61.76,34.11,36.08
"2018-04-18 22:00:00",336865,0.07,199.2,3.746,100,0.1494018,0,866.0361,0,-4.456,3.203,198,6.753,5.693,0.4359462,0.587,53.33,61.7,34.11,36.06
"2018-04-18 22:10:00",336866,0.058,198.1,3.282,100,0,0,865.9814,0,-4.204,3.203,196,6.791,5.695,0,0,53.28,61.7,34.1,36.06
"2018-04-18 22:20:00",336867,0.225,199.7,3.284,100,0,0,866.0129,0,-4.279,3.204,188,6.771,5.695,0.3525478,0,53.28,61.64,34.1,36.05
"2018-04-18 22:30:00",336868,0.006,126.7,3.074,100,0,0,866.0593,0,-4.079,3.203,187,6.689,5.695,0.4359462,0,53.28,61.64,34.1,36.05
"2018-04-18 22:40:00",336869,0.102,176.6,3.143,100,0,0,866.0024,0,-4.104,3.202,199,6.701,5.695,0.8756832,0,53.28,61.64,34.1,36.05
"2018-04-18 22:50:00",336870,0.485,191.7,3.246,100,0,0,866.0256,0,-4.129,3.203,182,6.614,5.695,0.7050955,0,53.28,61.58,34.1,36.04
"2018-04-18 23:00:00",336871,0.434,193.5,3.086,100,0,0,866.1288,0,-3.777,3.2,193,6.648,5.695,0.4549004,0,53.28,61.58,34.1,36.04
"2018-04-18 23:10:00",336872,0.455,197.2,3.059,100,0,0,866.0762,0,-3.978,3.202,190,6.564,5.695,0.4549004,0,53.28,61.58,34.1,36.04
"2018-04-18 23:20:00",336873,0.656,192.9,2.883,100,0,0,865.9814,0,-3.708,3.2,190,6.531,5.701,0.3525538,0,53.28,61.52,34.1,36.02
"2018-04-18 23:30:00",336874,0.533,191.4,2.894,100,0,0,866.0193,0,-3.595,3.199,190,6.522,5.717,0.4094432,0,53.22,61.58,34.08,36.04
"2018-04-18 23:40:00",336875,0.142,188.6,2.975,100,0,0,866.1246,0,-3.733,3.2,194,6.481,5.74,0.7507174,0,53.22,61.52,34.08,36.02
"2018-04-18 23:50:00",336876,0.296,185,2.451,100,0,0,865.9835,0,-3.642,3.203,190,6.529,5.761,0.1554601,0,53.22,61.52,34.08,36.02
